Time,TemperatureF,DewpointF,PressureIn,WindDirection,WindDirectionDegrees,WindSpeedMPH,WindSpeedGustMPH,Humidity,HourlyPrecipIn,Conditions,Clouds,dailyrainin,SoftwareType,DateUTC
2013-02-25 00:01:00,28.0,17.0,30.09,NW,315,0.0,0.0,64,0.00,,,0.00,,2013-02-25 05:01:00,
2013-02-25 00:11:00,28.0,17.0,30.09,NW,315,0.0,0.0,64,0.00,,,0.00,,2013-02-25 05:11:00,
2013-02-25 00:22:00,27.0,17.0,30.09,NW,315,0.0,0.0,65,0.00,,,0.00,,2013-02-25 05:22:00,
2013-02-25 00:32:00,27.0,17.0,30.10,NW,315,0.0,1.0,65,0.00,,,0.00,,2013-02-25 05:32:00,
2013-02-25 00:42:00,27.0,17.0,30.10,NW,315,0.0,1.0,65,0.00,,,0.00,,2013-02-25 05:42:00,
2013-02-25 00:52:00,27.0,17.0,30.10,NW,315,0.0,0.0,66,0.00,,,0.00,,2013-02-25 05:52:00,
2013-02-25 01:02:00,27.0,18.0,30.11,NW,315,0.0,0.0,67,0.00,,,0.00,,2013-02-25 06:02:00,
2013-02-25 01:11:00,27.0,18.0,30.11,NW,315,0.0,0.0,67,0.00,,,0.00,,2013-02-25 06:11:00,
2013-02-25 01:21:00,27.0,18.0,30.11,NW,315,0.0,0.0,67,0.00,,,0.00,,2013-02-25 06:21:00,
2013-02-25 01:32:00,28.0,18.0,30.11,NW,315,0.0,0.0,67,0.00,,,0.00,,2013-02-25 06:32:00,
2013-02-25 01:42:00,28.0,18.0,30.11,NW,315,0.0,0.0,67,0.00,,,0.00,,2013-02-25 06:42:00,
2013-02-25 01:51:00,28.0,18.0,30.11,NW,315,0.0,1.0,66,0.00,,,0.00,,2013-02-25 06:51:00,
2013-02-25 02:01:00,28.0,18.0,30.11,NW,315,1.0,2.0,67,0.00,,,0.00,,2013-02-25 07:01:00,
2013-02-25 02:11:00,29.0,19.0,30.11,NW,315,0.0,1.0,66,0.00,,,0.00,,2013-02-25 07:11:00,
2013-02-25 02:21:00,29.0,19.0,30.11,NW,315,0.0,1.0,66,0.00,,,0.00,,2013-02-25 07:21:00,
2013-02-25 02:32:00,29.0,18.0,30.11,North,355,0.0,6.0,64,0.00,,,0.00,,2013-02-25 07:32:00,
2013-02-25 02:42:00,29.0,18.0,30.11,North,355,0.0,6.0,64,0.00,,,0.00,,2013-02-25 07:42:00,
2013-02-25 02:52:00,29.0,19.0,30.11,North,355,2.0,4.0,65,0.00,,,0.00,,2013-02-25 07:52:00,
2013-02-25 03:01:00,30.0,19.0,30.11,North,355,3.0,8.0,63,0.00,,,0.00,,2013-02-25 08:01:00,
2013-02-25 03:11:00,30.0,19.0,30.11,North,350,5.0,8.0,63,0.00,,,0.00,,2013-02-25 08:11:00,
2013-02-25 03:21:00,30.0,19.0,30.11,North,350,5.0,8.0,63,0.00,,,0.00,,2013-02-25 08:21:00,
2013-02-25 03:32:00,31.0,20.0,30.11,North,355,2.0,5.0,63,0.00,,,0.00,,2013-02-25 08:32:00,
2013-02-25 03:42:00,31.0,20.0,30.11,North,355,2.0,5.0,63,0.00,,,0.00,,2013-02-25 08:42:00,
2013-02-25 03:52:00,31.0,19.0,30.11,North,350,3.0,7.0,61,0.00,,,0.00,,2013-02-25 08:52:00,
2013-02-25 04:01:00,30.0,18.0,30.11,North,350,2.0,5.0,61,0.00,,,0.00,,2013-02-25 09:01:00,
2013-02-25 04:12:00,30.0,18.0,30.11,North,350,2.0,5.0,61,0.00,,,0.00,,2013-02-25 09:12:00,
2013-02-25 04:21:00,30.0,18.0,30.11,North,355,1.0,7.0,61,0.00,,,0.00,,2013-02-25 09:21:00,
2013-02-25 04:32:00,30.0,18.0,30.12,North,355,0.0,2.0,61,0.00,,,0.00,,2013-02-25 09:32:00,
2013-02-25 04:42:00,30.0,18.0,30.12,North,355,0.0,2.0,61,0.00,,,0.00,,2013-02-25 09:42:00,
2013-02-25 04:52:00,30.0,18.0,30.12,North,349,2.0,3.0,61,0.00,,,0.00,,2013-02-25 09:52:00,
2013-02-25 05:01:00,29.0,18.0,30.12,North,349,4.0,5.0,64,0.00,,,0.00,,2013-02-25 10:01:00,
2013-02-25 05:11:00,30.0,19.0,30.12,North,349,3.0,5.0,63,0.00,,,0.00,,2013-02-25 10:11:00,
2013-02-25 05:21:00,30.0,19.0,30.12,North,349,3.0,5.0,63,0.00,,,0.00,,2013-02-25 10:21:00,
2013-02-25 05:32:00,30.0,19.0,30.11,North,350,5.0,8.0,62,0.00,,,0.00,,2013-02-25 10:32:00,
2013-02-25 05:42:00,30.0,19.0,30.11,North,350,5.0,8.0,62,0.00,,,0.00,,2013-02-25 10:42:00,
2013-02-25 05:52:00,30.0,19.0,30.12,North,355,0.0,5.0,63,0.00,,,0.00,,2013-02-25 10:52:00,
2013-02-25 06:01:00,29.0,18.0,30.14,North,355,0.0,2.0,63,0.00,,,0.00,,2013-02-25 11:01:00,
2013-02-25 06:11:00,29.0,18.0,30.14,North,355,0.0,2.0,63,0.00,,,0.00,,2013-02-25 11:11:00,
2013-02-25 06:22:00,29.0,18.0,30.14,North,355,0.0,1.0,64,0.00,,,0.00,,2013-02-25 11:22:00,
2013-02-25 06:32:00,29.0,18.0,30.14,North,355,2.0,3.0,64,0.00,,,0.00,,2013-02-25 11:32:00,
2013-02-25 06:42:00,29.0,18.0,30.14,North,355,2.0,3.0,64,0.00,,,0.00,,2013-02-25 11:42:00,
2013-02-25 06:52:00,27.0,17.0,30.15,North,355,0.0,0.0,65,0.00,,,0.00,,2013-02-25 11:52:00,
2013-02-25 07:02:00,27.0,17.0,30.15,North,355,1.0,2.0,66,0.00,,,0.00,,2013-02-25 12:02:00,
2013-02-25 07:11:00,27.0,17.0,30.15,North,355,1.0,2.0,66,0.00,,,0.00,,2013-02-25 12:11:00,
2013-02-25 07:22:00,27.0,17.0,30.15,North,355,0.0,1.0,66,0.00,,,0.00,,2013-02-25 12:22:00,
2013-02-25 07:32:00,27.0,17.0,30.16,North,355,0.0,1.0,66,0.00,,,0.00,,2013-02-25 12:32:00,
2013-02-25 07:42:00,27.0,17.0,30.16,North,355,0.0,1.0,66,0.00,,,0.00,,2013-02-25 12:42:00,
2013-02-25 07:56:00,28.0,18.0,30.16,North,355,0.0,2.0,65,0.00,,,0.00,,2013-02-25 12:56:00,
2013-02-25 08:02:00,30.0,19.0,30.16,North,355,0.0,0.0,64,0.00,,,0.00,,2013-02-25 13:02:00,
2013-02-25 08:12:00,30.0,19.0,30.16,North,355,0.0,0.0,64,0.00,,,0.00,,2013-02-25 13:12:00,
2013-02-25 08:23:00,31.0,21.0,30.17,North,355,0.0,1.0,65,0.00,,,0.00,,2013-02-25 13:23:00,
2013-02-25 08:32:00,32.0,22.0,30.17,North,355,0.0,2.0,65,0.00,,,0.00,,2013-02-25 13:32:00,
2013-02-25 08:42:00,32.0,22.0,30.17,North,355,0.0,2.0,65,0.00,,,0.00,,2013-02-25 13:42:00,
2013-02-25 08:52:00,33.0,21.0,30.18,North,355,1.0,3.0,60,0.00,,,0.00,,2013-02-25 13:52:00,
2013-02-25 09:03:00,34.0,21.0,30.18,North,355,1.0,4.0,58,0.00,,,0.00,,2013-02-25 14:03:00,
2013-02-25 09:17:00,34.0,21.0,30.18,North,355,1.0,4.0,58,0.00,,,0.00,,2013-02-25 14:17:00,
2013-02-25 09:32:00,36.0,21.0,30.19,NW,307,1.0,4.0,54,0.00,,,0.00,,2013-02-25 14:32:00,
2013-02-25 09:42:00,36.0,21.0,30.19,NW,307,1.0,4.0,54,0.00,,,0.00,,2013-02-25 14:42:00,
2013-02-25 09:52:00,37.0,22.0,30.18,NNW,348,2.0,4.0,54,0.00,,,0.00,,2013-02-25 14:52:00,
2013-02-25 10:03:00,37.0,20.0,30.18,NNW,346,2.0,6.0,50,0.00,,,0.00,,2013-02-25 15:03:00,
2013-02-25 10:11:00,37.0,20.0,30.18,NNW,346,2.0,6.0,50,0.00,,,0.00,,2013-02-25 15:11:00,
2013-02-25 10:22:00,38.0,21.0,30.19,North,355,2.0,6.0,49,0.00,,,0.00,,2013-02-25 15:22:00,
2013-02-25 10:32:00,39.0,21.0,30.19,NNW,344,1.0,4.0,48,0.00,,,0.00,,2013-02-25 15:32:00,
2013-02-25 10:42:00,39.0,21.0,30.19,NNW,344,1.0,4.0,48,0.00,,,0.00,,2013-02-25 15:42:00,
2013-02-25 10:52:00,39.0,20.0,30.19,NNW,345,1.0,5.0,47,0.00,,,0.00,,2013-02-25 15:52:00,
2013-02-25 11:02:00,40.0,22.0,30.19,NNW,334,1.0,5.0,48,0.00,,,0.00,,2013-02-25 16:02:00,
2013-02-25 11:12:00,40.0,22.0,30.19,NNW,334,1.0,5.0,48,0.00,,,0.00,,2013-02-25 16:12:00,
2013-02-25 11:22:00,41.0,22.0,30.19,NNW,334,0.0,5.0,46,0.00,,,0.00,,2013-02-25 16:22:00,
2013-02-25 11:32:00,41.0,21.0,30.19,North,5,1.0,7.0,44,0.00,,,0.00,,2013-02-25 16:32:00,
2013-02-25 11:42:00,41.0,21.0,30.19,North,5,1.0,7.0,44,0.00,,,0.00,,2013-02-25 16:42:00,
2013-02-25 11:52:00,42.0,22.0,30.19,NNW,339,1.0,4.0,45,0.00,,,0.00,,2013-02-25 16:52:00,
2013-02-25 12:01:00,42.0,21.0,30.18,NNE,25,3.0,6.0,43,0.00,,,0.00,,2013-02-25 17:01:00,
2013-02-25 12:11:00,42.0,21.0,30.18,NNE,25,3.0,6.0,43,0.00,,,0.00,,2013-02-25 17:11:00,
2013-02-25 12:21:00,42.0,21.0,30.17,NNW,336,3.0,7.0,43,0.00,,,0.00,,2013-02-25 17:21:00,
2013-02-25 12:32:00,42.0,21.0,30.16,NE,36,3.0,12.0,43,0.00,,,0.00,,2013-02-25 17:32:00,
2013-02-25 12:42:00,42.0,21.0,30.16,NE,36,3.0,12.0,43,0.00,,,0.00,,2013-02-25 17:42:00,
2013-02-25 12:52:00,43.0,22.0,30.16,NW,325,1.0,8.0,43,0.00,,,0.00,,2013-02-25 17:52:00,
2013-02-25 13:01:00,43.0,23.0,30.17,NNW,329,3.0,7.0,44,0.00,,,0.00,,2013-02-25 18:01:00,
2013-02-25 13:12:00,43.0,23.0,30.17,NNW,329,3.0,7.0,44,0.00,,,0.00,,2013-02-25 18:12:00,
2013-02-25 13:21:00,43.0,23.0,30.16,North,5,2.0,6.0,45,0.00,,,0.00,,2013-02-25 18:21:00,
2013-02-25 13:32:00,44.0,24.0,30.16,NNW,345,3.0,7.0,45,0.00,,,0.00,,2013-02-25 18:32:00,
2013-02-25 13:42:00,44.0,24.0,30.16,NNW,345,3.0,7.0,45,0.00,,,0.00,,2013-02-25 18:42:00,
2013-02-25 13:52:00,44.0,23.0,30.15,NE,34,2.0,4.0,44,0.00,,,0.00,,2013-02-25 18:52:00,
2013-02-25 14:01:00,45.0,23.0,30.14,NNW,338,3.0,5.0,42,0.00,,,0.00,,2013-02-25 19:01:00,
2013-02-25 14:11:00,45.0,23.0,30.14,NNW,338,3.0,5.0,42,0.00,,,0.00,,2013-02-25 19:11:00,
2013-02-25 14:21:00,45.0,24.0,30.13,NNW,348,1.0,7.0,43,0.00,,,0.00,,2013-02-25 19:21:00,
2013-02-25 14:32:00,45.0,23.0,30.13,WNW,296,0.0,7.0,42,0.00,,,0.00,,2013-02-25 19:32:00,
2013-02-25 14:42:00,45.0,23.0,30.13,WNW,296,0.0,7.0,42,0.00,,,0.00,,2013-02-25 19:42:00,
2013-02-25 14:52:00,46.0,23.0,30.13,ESE,114,3.0,5.0,40,0.00,,,0.00,,2013-02-25 19:52:00,
2013-02-25 15:01:00,46.0,22.0,30.12,SE,140,1.0,4.0,39,0.00,,,0.00,,2013-02-25 20:01:00,
2013-02-25 15:11:00,46.0,22.0,30.12,SE,140,1.0,4.0,39,0.00,,,0.00,,2013-02-25 20:11:00,
2013-02-25 15:21:00,47.0,25.0,30.12,NE,40,1.0,5.0,41,0.00,,,0.00,,2013-02-25 20:21:00,
2013-02-25 15:32:00,47.0,25.0,30.12,East,98,2.0,7.0,41,0.00,,,0.00,,2013-02-25 20:32:00,
2013-02-25 15:42:00,47.0,25.0,30.12,East,98,2.0,7.0,41,0.00,,,0.00,,2013-02-25 20:42:00,
2013-02-25 15:52:00,46.0,24.0,30.13,NNW,338,4.0,7.0,42,0.00,,,0.00,,2013-02-25 20:52:00,
2013-02-25 16:01:00,46.0,24.0,30.12,NNW,344,1.0,4.0,41,0.00,,,0.00,,2013-02-25 21:01:00,
2013-02-25 16:11:00,46.0,24.0,30.12,NNW,344,1.0,4.0,41,0.00,,,0.00,,2013-02-25 21:11:00,
2013-02-25 16:21:00,46.0,23.0,30.12,NW,317,1.0,5.0,40,0.00,,,0.00,,2013-02-25 21:21:00,
2013-02-25 16:32:00,47.0,23.0,30.11,NNE,30,2.0,5.0,39,0.00,,,0.00,,2013-02-25 21:32:00,
2013-02-25 16:42:00,47.0,23.0,30.11,NNE,30,2.0,5.0,39,0.00,,,0.00,,2013-02-25 21:42:00,
2013-02-25 16:52:00,46.0,22.0,30.12,NNE,30,1.0,4.0,38,0.00,,,0.00,,2013-02-25 21:52:00,
2013-02-25 17:01:00,46.0,22.0,30.13,NNE,30,1.0,3.0,39,0.00,,,0.00,,2013-02-25 22:01:00,
2013-02-25 17:11:00,46.0,22.0,30.13,NNE,30,1.0,3.0,39,0.00,,,0.00,,2013-02-25 22:11:00,
2013-02-25 17:21:00,46.0,22.0,30.12,South,172,1.0,3.0,38,0.00,,,0.00,,2013-02-25 22:21:00,
2013-02-25 17:32:00,46.0,23.0,30.13,South,173,1.0,3.0,40,0.00,,,0.00,,2013-02-25 22:32:00,
2013-02-25 17:42:00,46.0,23.0,30.13,South,173,1.0,3.0,40,0.00,,,0.00,,2013-02-25 22:42:00,
2013-02-25 17:52:00,44.0,23.0,30.13,South,173,0.0,0.0,44,0.00,,,0.00,,2013-02-25 22:52:00,
2013-02-25 18:01:00,42.0,22.0,30.14,South,173,0.0,0.0,45,0.00,,,0.00,,2013-02-25 23:01:00,
2013-02-25 18:11:00,42.0,22.0,30.14,South,173,0.0,0.0,45,0.00,,,0.00,,2013-02-25 23:11:00,
2013-02-25 18:22:00,41.0,22.0,30.14,South,173,0.0,0.0,47,0.00,,,0.00,,2013-02-25 23:22:00,
2013-02-25 18:32:00,41.0,23.0,30.14,South,173,0.0,0.0,48,0.00,,,0.00,,2013-02-25 23:32:00,
2013-02-25 18:42:00,41.0,23.0,30.14,South,173,0.0,0.0,48,0.00,,,0.00,,2013-02-25 23:42:00,
2013-02-25 18:52:00,39.0,21.0,30.14,South,173,0.0,1.0,49,0.00,,,0.00,,2013-02-25 23:52:00,
2013-02-25 19:01:00,38.0,22.0,30.14,South,172,0.0,2.0,51,0.00,,,0.00,,2013-02-26 00:01:00,
2013-02-25 19:12:00,38.0,22.0,30.14,South,172,0.0,2.0,51,0.00,,,0.00,,2013-02-26 00:12:00,
2013-02-25 19:22:00,38.0,22.0,30.15,South,172,0.0,2.0,53,0.00,,,0.00,,2013-02-26 00:22:00,
2013-02-25 19:32:00,38.0,22.0,30.16,South,171,0.0,3.0,52,0.00,,,0.00,,2013-02-26 00:32:00,
2013-02-25 19:42:00,38.0,22.0,30.16,South,171,0.0,3.0,52,0.00,,,0.00,,2013-02-26 00:42:00,
2013-02-25 19:52:00,38.0,22.0,30.16,South,171,0.0,1.0,52,0.00,,,0.00,,2013-02-26 00:52:00,
2013-02-25 20:02:00,37.0,22.0,30.16,South,171,0.0,0.0,54,0.00,,,0.00,,2013-02-26 01:02:00,
2013-02-25 20:11:00,37.0,22.0,30.16,South,171,0.0,0.0,54,0.00,,,0.00,,2013-02-26 01:11:00,
2013-02-25 20:21:00,36.0,21.0,30.16,South,171,0.0,1.0,55,0.00,,,0.00,,2013-02-26 01:21:00,
2013-02-25 20:32:00,37.0,22.0,30.16,South,171,0.0,2.0,54,0.00,,,0.00,,2013-02-26 01:32:00,
2013-02-25 20:42:00,37.0,22.0,30.16,South,171,0.0,2.0,54,0.00,,,0.00,,2013-02-26 01:42:00,
2013-02-25 20:52:00,37.0,22.0,30.16,South,171,0.0,1.0,55,0.00,,,0.00,,2013-02-26 01:52:00,
2013-02-25 21:01:00,36.0,22.0,30.16,South,171,0.0,1.0,56,0.00,,,0.00,,2013-02-26 02:01:00,
2013-02-25 21:11:00,36.0,22.0,30.16,South,171,0.0,1.0,56,0.00,,,0.00,,2013-02-26 02:11:00,
2013-02-25 21:21:00,35.0,21.0,30.16,South,171,0.0,1.0,57,0.00,,,0.00,,2013-02-26 02:21:00,
2013-02-25 21:32:00,35.0,22.0,30.16,South,171,0.0,2.0,59,0.00,,,0.00,,2013-02-26 02:32:00,
2013-02-25 21:42:00,35.0,22.0,30.16,South,171,0.0,2.0,59,0.00,,,0.00,,2013-02-26 02:42:00,
2013-02-25 21:52:00,35.0,22.0,30.16,South,171,1.0,2.0,59,0.00,,,0.00,,2013-02-26 02:52:00,
2013-02-25 22:02:00,35.0,22.0,30.16,South,171,0.0,1.0,59,0.00,,,0.00,,2013-02-26 03:02:00,
2013-02-25 22:11:00,35.0,22.0,30.16,South,171,0.0,1.0,59,0.00,,,0.00,,2013-02-26 03:11:00,
2013-02-25 22:22:00,35.0,22.0,30.16,South,171,1.0,2.0,59,0.00,,,0.00,,2013-02-26 03:22:00,
2013-02-25 22:32:00,34.0,22.0,30.16,South,171,0.0,2.0,60,0.00,,,0.00,,2013-02-26 03:32:00,
2013-02-25 22:42:00,34.0,22.0,30.16,South,171,0.0,2.0,60,0.00,,,0.00,,2013-02-26 03:42:00,
2013-02-25 22:52:00,35.0,23.0,30.16,South,171,0.0,2.0,60,0.00,,,0.00,,2013-02-26 03:52:00,
2013-02-25 23:01:00,35.0,22.0,30.14,South,171,0.0,3.0,59,0.00,,,0.00,,2013-02-26 04:01:00,
2013-02-25 23:11:00,35.0,22.0,30.14,South,171,0.0,3.0,59,0.00,,,0.00,,2013-02-26 04:11:00,
2013-02-25 23:22:00,35.0,22.0,30.15,South,171,0.0,3.0,59,0.00,,,0.00,,2013-02-26 04:22:00,
2013-02-25 23:32:00,34.0,22.0,30.17,South,171,0.0,2.0,60,0.00,,,0.00,,2013-02-26 04:32:00,
2013-02-25 23:42:00,34.0,22.0,30.17,South,171,0.0,2.0,60,0.00,,,0.00,,2013-02-26 04:42:00,
2013-02-25 23:52:00,34.0,22.0,30.16,South,171,0.0,2.0,60,0.00,,,0.00,,2013-02-26 04:52:00,